Location: Newark
(47.3150°N, 5.1150°E)
Time: 06:14:35
(UTC+00:00)

AO-7 - Pass Details

Date: 16 December 2019
Orbit: 1440 x 1458 km, 101.8° (Epoch: 20 January)

Event Time Altitude Azimuth Distance (km) Brightness Sun altitude
Rises 05:22:27 0° 15° (NNE) 4,562 ? -18.9°
Reaches altitude 10° 05:25:34 10° 6° (N) 3,583 ? -18.4°
Maximum altitude 05:32:37 32° 308° (NW) 2,291 ? -17.3°
Enters shadow 05:38:03 16° 257° (WSW) 3,123 ? -16.4°
